Location: Arborea
(39.7744°N, 8.5819°E)
Time: 05:14:56
(UTC+00:00)

Cosmos 2322 - Pass Details

Date: 29 May 2022
Orbit: 840 x 855 km, 71.0° (Epoch: 03 July)

Event Time Altitude Azimuth Distance (km) Brightness Sun altitude
Exits shadow 21:44:43 44° 99° (E) 1,158 4.1 -24.4°
Drops below altitude 10° 21:49:53 10° 36° (NE) 2,492 6.5 -24.8°
Sets 21:52:26 0° 30° (NNE) 3,432 7.4 -25.0°
